Dillon, MT

10:58 AM MDT on May 24, 2017 (GMT -0600)
Dillon

Weather History for KDLN - November, 2012

Change the Weather History Date:

Friday, November 2, 2012

  Actual Average Record
Temperature  
Mean Temperature 42 °F 37 °F  
Max Temperature 54 °F 49 °F 65 °F (1978)
Min Temperature 29 °F 25 °F -12 °F (1991)
Degree Days  
Heating Degree Days 23    
Month to date heating degree days 41  
Since 1 July heating degree days 907  
Cooling Degree Days 0    
Month to date cooling degree days 0  
Year to date cooling degree days 242  
Moisture  
Dew Point 25 °F    
Average Humidity 51    
Maximum Humidity 69    
Minimum Humidity 32    
Precipitation  
Precipitation 0.00 in 0.01 in 0.30 in (2005)
Month to date precipitation T 0.03  
Year to date precipitation 5.82 9.96  
Snow  
Snow 0.00 in - - ()
Snow Depth 0.00 in    
Sea Level Pressure  
Sea Level Pressure 30.08 in    
Wind  
Wind Speed 8 mph (SSW)    
Max Wind Speed 16 mph    
Max Gust Speed 20 mph    
Visibility 10 miles    
Events      
T = Trace of Precipitation, MM = Missing Value Source: NWS Daily Summary

Daily Weather History Graph

Daily Weather History Graph

Search for Another Location

Airport or City:

Trip Planner

Search our weather history database for the weather conditions in past years. The results will help you decide how hot, cold, wet, or windy it might be!

Date:

Astronomy

Nov. 02, 2012 Rise Set
Actual Time 8:11 AM MDT 6:15 PM MDT
Civil Twilight 7:40 AM MDT 6:46 PM MDT
Nautical Twilight 7:05 AM MDT 7:21 PM MDT
Astronomical Twilight 6:31 AM MDT 7:55 PM MDT
Moon 9:00 PM MDT (11/2) 11:40 AM MDT (11/2)
Length of Visible Light 11h 05m
Length of Day
10h 04m
Waning Gibbous, 87% of the Moon is Illuminated
Nov 2
Waning Gibbous
Nov 6
Last Quarter
Nov 13
New
Nov 20
First Quarter
Nov 28
Full

Hourly Weather History & Observations

Time (MDT) Temp. Windchill Dew Point Humidity Pressure Visibility Wind Dir Wind Speed Gust Speed Precip Events Conditions
12:53 AM 39.9 °F 33.9 °F 26.1 °F 58% 29.97 in 10.0 mi South 9.2 mph - N/A   Overcast
1:53 AM 39.9 °F 33.9 °F 26.1 °F 58% 29.98 in 10.0 mi South 9.2 mph - N/A   Overcast
2:53 AM 37.9 °F 33.5 °F 26.1 °F 62% 29.99 in 10.0 mi South 5.8 mph - N/A   Mostly Cloudy
3:53 AM 37.9 °F 30.0 °F 27.0 °F 65% 30.01 in 10.0 mi SSW 12.7 mph - N/A   Overcast
4:53 AM 37.9 °F 30.5 °F 26.1 °F 62% 30.01 in 10.0 mi SSW 11.5 mph - N/A   Overcast
5:53 AM 37.9 °F 30.5 °F 26.1 °F 62% 30.06 in 10.0 mi SSW 11.5 mph - N/A   Mostly Cloudy
6:53 AM 37.9 °F 30.5 °F 27.0 °F 65% 30.08 in 10.0 mi SW 11.5 mph - N/A   Mostly Cloudy
7:53 AM 37.9 °F 30.5 °F 26.1 °F 62% 30.12 in 10.0 mi South 11.5 mph - N/A   Overcast
8:53 AM 37.9 °F 31.5 °F 27.0 °F 65% 30.13 in 10.0 mi SSW 9.2 mph - N/A   Overcast
9:53 AM 42.1 °F 37.1 °F 28.0 °F 58% 30.13 in 10.0 mi South 8.1 mph - N/A   Overcast
10:53 AM 45.0 °F 40.6 °F 28.9 °F 53% 30.12 in 10.0 mi SSW 8.1 mph - N/A   Mostly Cloudy
11:53 AM 48.9 °F - 27.0 °F 43% 30.12 in 10.0 mi WSW 10.4 mph - N/A   Scattered Clouds
12:53 PM 52.0 °F - 24.1 °F 34% 30.09 in 10.0 mi West 11.5 mph 19.6 mph N/A   Partly Cloudy
1:53 PM 52.0 °F - 23.0 °F 32% 30.07 in 10.0 mi West 9.2 mph - N/A   Mostly Cloudy
2:53 PM 52.0 °F - 23.0 °F 32% 30.06 in 10.0 mi Variable 4.6 mph - N/A   Mostly Cloudy
3:53 PM 52.0 °F - 23.0 °F 32% 30.05 in 10.0 mi SW 9.2 mph - N/A   Mostly Cloudy
4:53 PM 52.0 °F - 23.0 °F 32% 30.05 in 10.0 mi WSW 8.1 mph - N/A   Clear
5:53 PM 48.9 °F - 23.0 °F 36% 30.06 in 10.0 mi NNW 4.6 mph - N/A   Mostly Cloudy
6:53 PM 42.1 °F 37.1 °F 25.0 °F 51% 30.11 in 10.0 mi East 8.1 mph - N/A   Clear
7:53 PM 36.0 °F - 24.1 °F 62% 30.14 in 10.0 mi Calm Calm - N/A   Clear
8:53 PM 35.1 °F 29.3 °F 24.1 °F 64% 30.14 in 10.0 mi South 6.9 mph - N/A   Clear
9:53 PM 36.0 °F 31.1 °F 24.1 °F 62% 30.13 in 10.0 mi South 5.8 mph - N/A   Clear
10:53 PM 35.1 °F 30.1 °F 23.0 °F 61% 30.14 in 10.0 mi South 5.8 mph - N/A   Clear
11:53 PM 33.1 °F 26.1 °F 24.1 °F 70% 30.14 in 10.0 mi South 8.1 mph - N/A   Clear